Meteo orario Abakumovo

Oggi, 6 Marzo, Sabato

Tempo Temperatura Precipitazioni Vento Pressione Umidità
00:00 -13°C° 0 mm 2 m/s 742 mm Hg 96%
01:00 -11°C° 0 mm 1 m/s 743 mm Hg 96%
02:00 -11°C° 0 mm 1 m/s 743 mm Hg 96%
03:00 -11°C° 0 mm 1 m/s 743 mm Hg 96%
04:00 -11°C° 0 mm 1 m/s 743 mm Hg 96%
05:00 -12°C° 0 mm 1 m/s 743 mm Hg 96%
06:00 -13°C° 0 mm 2 m/s 743 mm Hg 95%
07:00 -13°C° 0 mm 2 m/s 743 mm Hg 94%
08:00 -12°C° 0 mm 2 m/s 744 mm Hg 92%
09:00 -10°C° 0 mm 2 m/s 744 mm Hg 89%
10:00 -9°C° 0 mm 2 m/s 744 mm Hg 85%
11:00 -8°C° 0 mm 2 m/s 743 mm Hg 82%
12:00 -7°C° 0 mm 2 m/s 743 mm Hg 80%
13:00 -8°C° 0 mm 3 m/s 742 mm Hg 78%
14:00 -7°C° 0 mm 3 m/s 742 mm Hg 76%
15:00 -8°C° 0 mm 3 m/s 741 mm Hg 80%
16:00 -8°C° 0 mm 2 m/s 741 mm Hg 83%
17:00 -9°C° 0 mm 2 m/s 740 mm Hg 86%
18:00 -10°C° 0 mm 3 m/s 739 mm Hg 84%
19:00 -9°C° 0 mm 3 m/s 738 mm Hg 83%
20:00 -10°C° 0 mm 4 m/s 737 mm Hg 81%
21:00 -11°C° 0.1 mm 5 m/s 736 mm Hg 85%
22:00 -11°C° 0.1 mm 5 m/s 734 mm Hg 88%
23:00 -10°C° 0.1 mm 6 m/s 732 mm Hg 92%

Domani, 7 Marzo, Domenica

Tempo Temperatura Precipitazioni Vento Pressione Umidità
00:00 -10°C° 0.5 mm 6 m/s 731 mm Hg 92%
01:00 -9°C° 0.5 mm 6 m/s 730 mm Hg 92%
02:00 -9°C° 0.5 mm 6 m/s 728 mm Hg 93%
03:00 -8°C° 0.7 mm 6 m/s 727 mm Hg 93%
04:00 -7°C° 0.7 mm 5 m/s 726 mm Hg 94%
05:00 -6°C° 0.7 mm 5 m/s 725 mm Hg 94%
06:00 -6°C° 0.5 mm 5 m/s 724 mm Hg 94%
07:00 -6°C° 0.5 mm 6 m/s 723 mm Hg 93%
08:00 -6°C° 0.5 mm 6 m/s 723 mm Hg 93%
09:00 -7°C° 0.3 mm 5 m/s 723 mm Hg 89%
10:00 -7°C° 0.3 mm 5 m/s 723 mm Hg 86%
11:00 -8°C° 0.3 mm 5 m/s 723 mm Hg 83%
12:00 -9°C° 0.3 mm 6 m/s 723 mm Hg 81%
13:00 -10°C° 0.3 mm 6 m/s 724 mm Hg 80%
14:00 -10°C° 0.3 mm 6 m/s 724 mm Hg 78%
15:00 -11°C° 0.2 mm 5 m/s 724 mm Hg 77%
16:00 -10°C° 0.2 mm 4 m/s 725 mm Hg 77%
17:00 -10°C° 0.2 mm 4 m/s 725 mm Hg 76%
18:00 -10°C° 0 mm 3 m/s 725 mm Hg 80%
19:00 -13°C° 0 mm 3 m/s 725 mm Hg 83%
20:00 -14°C° 0 mm 3 m/s 726 mm Hg 86%
21:00 -14°C° 0 mm 3 m/s 726 mm Hg 88%
22:00 -15°C° 0 mm 3 m/s 726 mm Hg 90%
23:00 -15°C° 0 mm 3 m/s 726 mm Hg 92%

Dopodomani, 8 Marzo, Lunedi

Tempo Temperatura Precipitazioni Vento Pressione Umidità
00:00 -15°C° 0 mm 3 m/s 727 mm Hg 93%
01:00 -14°C° 0 mm 3 m/s 728 mm Hg 93%
02:00 -15°C° 0 mm 4 m/s 728 mm Hg 93%
03:00 -14°C° 0.2 mm 4 m/s 729 mm Hg 93%
04:00 -14°C° 0.2 mm 4 m/s 730 mm Hg 92%
05:00 -14°C° 0.2 mm 4 m/s 730 mm Hg 92%
06:00 -14°C° 0.1 mm 4 m/s 731 mm Hg 91%
07:00 -15°C° 0.1 mm 4 m/s 732 mm Hg 90%
08:00 -15°C° 0.1 mm 4 m/s 733 mm Hg 89%
09:00 -15°C° 0 mm 4 m/s 734 mm Hg 88%
10:00 -14°C° 0 mm 4 m/s 735 mm Hg 87%
11:00 -14°C° 0 mm 4 m/s 735 mm Hg 86%
12:00 -14°C° 0 mm 4 m/s 736 mm Hg 86%
13:00 -12°C° 0 mm 4 m/s 737 mm Hg 85%
14:00 -12°C° 0 mm 4 m/s 738 mm Hg 85%
15:00 -14°C° 0 mm 4 m/s 738 mm Hg 86%
16:00 -13°C° 0 mm 3 m/s 739 mm Hg 87%
17:00 -14°C° 0 mm 3 m/s 739 mm Hg 88%
18:00 -15°C° 0 mm 3 m/s 740 mm Hg 91%
19:00 -16°C° 0 mm 2 m/s 741 mm Hg 93%
20:00 -17°C° 0 mm 2 m/s 741 mm Hg 96%
21:00 -19°C° 0 mm 2 m/s 742 mm Hg 96%
22:00 -20°C° 0 mm 2 m/s 742 mm Hg 97%
23:00 -21°C° 0 mm 2 m/s 742 mm Hg 98%

9 Marzo, Martedi

Tempo Temperatura Precipitazioni Vento Pressione Umidità
00:00 -23°C° 0 mm 2 m/s 743 mm Hg 98%
01:00 -24°C° 0 mm 2 m/s 743 mm Hg 98%
02:00 -25°C° 0 mm 2 m/s 743 mm Hg 98%
03:00 -26°C° 0 mm 2 m/s 744 mm Hg 98%
04:00 -27°C° 0 mm 2 m/s 744 mm Hg 98%
05:00 -24°C° 0 mm 1 m/s 744 mm Hg 98%
06:00 -24°C° 0 mm 1 m/s 745 mm Hg 97%
07:00 -23°C° 0 mm 1 m/s 745 mm Hg 96%
08:00 -22°C° 0 mm 1 m/s 746 mm Hg 95%
09:00 -20°C° 0 mm 1 m/s 746 mm Hg 90%
10:00 -19°C° 0 mm 1 m/s 746 mm Hg 85%
11:00 -17°C° 0 mm 1 m/s 746 mm Hg 81%
12:00 -16°C° 0 mm 1 m/s 747 mm Hg 78%
13:00 -15°C° 0 mm 1 m/s 747 mm Hg 76%
14:00 -14°C° 0 mm 1 m/s 747 mm Hg 73%
15:00 -15°C° 0 mm 1 m/s 747 mm Hg 78%
16:00 -16°C° 0 mm 1 m/s 747 mm Hg 83%
17:00 -17°C° 0 mm 1 m/s 747 mm Hg 87%
18:00 -18°C° 0 mm 1 m/s 747 mm Hg 89%
19:00 -19°C° 0 mm 1 m/s 747 mm Hg 91%
20:00 -20°C° 0 mm 1 m/s 748 mm Hg 93%
21:00 -20°C° 0 mm 1 m/s 748 mm Hg 93%
22:00 -21°C° 0 mm 1 m/s 748 mm Hg 93%
23:00 -24°C° 0 mm 2 m/s 748 mm Hg 93%

10 Marzo, Mercoledi

Tempo Temperatura Precipitazioni Vento Pressione Umidità
00:00 -25°C° 0 mm 2 m/s 747 mm Hg 93%
01:00 -25°C° 0 mm 2 m/s 747 mm Hg 92%
02:00 -25°C° 0 mm 2 m/s 747 mm Hg 92%
03:00 -26°C° 0 mm 2 m/s 747 mm Hg 93%
04:00 -26°C° 0 mm 2 m/s 747 mm Hg 93%
05:00 -27°C° 0 mm 2 m/s 747 mm Hg 93%
06:00 -26°C° 0 mm 2 m/s 748 mm Hg 92%
07:00 -25°C° 0 mm 2 m/s 748 mm Hg 91%
08:00 -25°C° 0 mm 2 m/s 748 mm Hg 90%
09:00 -23°C° 0 mm 2 m/s 748 mm Hg 87%
10:00 -20°C° 0 mm 2 m/s 749 mm Hg 84%
11:00 -18°C° 0 mm 2 m/s 749 mm Hg 81%
12:00 -17°C° 0 mm 2 m/s 749 mm Hg 81%
13:00 -16°C° 0 mm 2 m/s 749 mm Hg 80%
14:00 -15°C° 0 mm 2 m/s 749 mm Hg 79%
15:00 -16°C° 0 mm 2 m/s 749 mm Hg 83%
16:00 -17°C° 0 mm 2 m/s 748 mm Hg 87%
17:00 -18°C° 0 mm 2 m/s 748 mm Hg 91%
18:00 -19°C° 0 mm 2 m/s 748 mm Hg 92%
19:00 -20°C° 0 mm 2 m/s 749 mm Hg 93%
20:00 -21°C° 0 mm 2 m/s 749 mm Hg 94%
21:00 -23°C° 0 mm 2 m/s 748 mm Hg 95%
22:00 -23°C° 0 mm 2 m/s 748 mm Hg 95%
23:00 -24°C° 0 mm 2 m/s 748 mm Hg 95%

11 Marzo, Giovedi

Tempo Temperatura Precipitazioni Vento Pressione Umidità
00:00 -24°C° 0 mm 2 m/s 748 mm Hg 95%
01:00 -24°C° 0 mm 2 m/s 748 mm Hg 94%
02:00 -24°C° 0 mm 2 m/s 747 mm Hg 94%
03:00 -24°C° 0 mm 2 m/s 747 mm Hg 93%
04:00 -24°C° 0 mm 2 m/s 747 mm Hg 93%
05:00 -24°C° 0 mm 2 m/s 747 mm Hg 92%
06:00 -24°C° 0 mm 3 m/s 746 mm Hg 91%
07:00 -23°C° 0 mm 3 m/s 746 mm Hg 90%
08:00 -22°C° 0 mm 3 m/s 746 mm Hg 89%
09:00 -19°C° 0 mm 3 m/s 746 mm Hg 89%
10:00 -17°C° 0 mm 3 m/s 745 mm Hg 88%
11:00 -15°C° 0 mm 3 m/s 745 mm Hg 87%
12:00 -14°C° 0 mm 3 m/s 745 mm Hg 87%
13:00 -14°C° 0 mm 4 m/s 744 mm Hg 87%
14:00 -12°C° 0 mm 4 m/s 744 mm Hg 87%
15:00 -12°C° 0 mm 4 m/s 743 mm Hg 89%
16:00 -14°C° 0 mm 4 m/s 743 mm Hg 90%
17:00 -14°C° 0 mm 4 m/s 742 mm Hg 92%
18:00 -14°C° 0 mm 4 m/s 742 mm Hg 92%
19:00 -15°C° 0 mm 4 m/s 741 mm Hg 93%
20:00 -15°C° 0 mm 4 m/s 741 mm Hg 93%
21:00 -15°C° 0 mm 4 m/s 740 mm Hg 94%
22:00 -16°C° 0 mm 4 m/s 740 mm Hg 94%
23:00 -16°C° 0 mm 4 m/s 739 mm Hg 95%
Mostrare altro

Abbiamo bisogno del tuo consenso

Meteoprog e i nostri fornitori di servizi possono memorizzare e accedere a dati personali come cookie, identificatori di dispositivi o altre tecnologie simili sul tuo dispositivo e possono elaborare tali dati per personalizzare i contenuti e gli annunci, nonché fornire funzionalità dei social media e analizzarne il traffico.

  • Archiviare e/o accedere alle informazioni sul tuo dispositivo

    Cookie, identificatori di dispositivi o altre informazioni possono essere memorizzati o resi accessibili sul tuo dispositivo per le finalità sopra indicate.

  • Annunci e contenuti personalizzati, misurazione di annunci e contenuti, approfondimenti sul pubblico e sviluppo di prodotti

    Gli annunci e i contenuti possono essere personalizzati in base a un profilo. È possibile aggiungere più dati per personalizzare meglio annunci e contenuti. È possibile misurare il rendimento degli annunci e dei contenuti. È possibile ricavare informazioni sul pubblico che ha visto gli annunci e i contenuti. Tali dati possono essere utilizzati per sviluppare o migliorare l'esperienza, i sistemi e il software dell'utente.

Cliccando su “Accetto”, acconsenti all'uso di cookie, identificatori di dispositivo, web beacon o altre tecnologie simili. Puoi modificare le impostazioni nel browser del tuo dispositivo.

Per determinati scopi, è possibile fare affidamento su interessi legali, piuttosto che sul consenso. Puoi approfondire questo argomento consultando la nostra Informativa sulla privacy e sui cookie.